Pardubice, Czech Republic

1:05 PM CET on February 07, 2016 (GMT +0100)
Pardubice

Weather History for LKPD - March, 2012

Change the Weather History Date:

Sunday, March 4, 2012

  Actual Average Record
Temperature  
Mean Temperature 35 °F -  
Max Temperature 44 °F - - ()
Min Temperature 26 °F - - ()
Degree Days  
Heating Degree Days 30    
Moisture  
Dew Point 22 °F    
Average Humidity 64    
Maximum Humidity 93    
Minimum Humidity 31    
Precipitation  
Precipitation 0.00 in - - ()
Sea Level Pressure  
Sea Level Pressure 30.23 in    
Wind  
Wind Speed 3 mph ()    
Max Wind Speed 7 mph    
Max Gust Speed -    
T = Trace of Precipitation, MM = Missing Value Source: Averaged Metar Reports

Daily Weather History Graph

Daily Weather History Graph

Search for Another Location

Airport or City:

Trip Planner

Search our weather history database for the weather conditions in past years. The results will help you decide how hot, cold, wet, or windy it might be!

Date:

Astronomy

Mar. 04, 2012 Rise Set
Actual Time 6:33 AM CET 5:44 PM CET
Civil Twilight 6:01 AM CET 6:17 PM CET
Nautical Twilight 5:24 AM CET 6:54 PM CET
Astronomical Twilight 4:46 AM CET 7:32 PM CET
Moon 1:17 PM CET (3/4) 4:03 AM CET (3/4)
Length of Visible Light 12h 15m
Length of Day
11h 11m
Waxing Gibbous, 81% of the Moon is Illuminated
Mar 4
Waxing Gibbous
Mar 8
Full
Mar 15
Last Quarter
Mar 22
New
Mar 30
First Quarter

Hourly Weather History & Observations

Time (CET) Temp. Windchill Dew Point Humidity Pressure Visibility Wind Dir Wind Speed Gust Speed Precip Events Conditions
12:00 AM 28.4 °F - 23.0 °F 80% 30.30 in - East 1.2 mph - N/A   Clear
1:00 AM 30.2 °F - 26.6 °F 86% 30.30 in - SSW 2.3 mph - N/A   Clear
2:00 AM 28.4 °F - 23.0 °F 80% 30.30 in - ENE 1.2 mph - N/A   Clear
3:00 AM 26.6 °F - 24.8 °F 93% 30.30 in - ESE 1.2 mph - N/A   Clear
4:00 AM 28.4 °F 24.6 °F 24.8 °F 86% 30.27 in - ENE 3.5 mph - N/A   Clear
5:00 AM 26.6 °F - 23.0 °F 86% 30.27 in - Calm Calm - N/A   Clear
6:00 AM 26.6 °F - 24.8 °F 93% 30.27 in - Calm Calm - N/A   Clear
7:00 AM 28.4 °F - 24.8 °F 86% 30.27 in - WNW 2.3 mph - N/A   Clear
8:00 AM 28.4 °F - 26.6 °F 93% 30.27 in - East 2.3 mph - N/A   Clear
9:00 AM 32.0 °F 28.7 °F 26.6 °F 80% 30.27 in - East 3.5 mph - N/A   Clear
10:00 AM 35.6 °F 31.7 °F 24.8 °F 65% 30.27 in - East 4.6 mph - N/A   Clear
11:00 AM 41.0 °F 38.0 °F 23.0 °F 49% 30.27 in - East 4.6 mph - N/A   Clear
12:00 PM 41.0 °F 38.0 °F 21.2 °F 45% 30.24 in - ESE 4.6 mph - N/A   Clear
1:00 PM 42.8 °F 40.1 °F 19.4 °F 39% 30.24 in - East 4.6 mph - N/A   Clear
2:00 PM 44.6 °F 42.2 °F 15.8 °F 31% 30.21 in - ENE 4.6 mph - N/A   Clear
3:00 PM 44.6 °F 41.4 °F 17.6 °F 34% 30.18 in - East 5.8 mph - N/A   Clear
4:00 PM 44.6 °F 40.7 °F 19.4 °F 37% 30.18 in - ESE 6.9 mph - N/A   Clear
5:00 PM 42.8 °F 39.3 °F 21.2 °F 42% 30.15 in - East 5.8 mph - N/A   Clear
6:00 PM 39.2 °F 35.0 °F 17.6 °F 42% 30.15 in - East 5.8 mph - N/A   Clear
7:00 PM 35.6 °F 31.7 °F 21.2 °F 56% 30.15 in - East 4.6 mph - N/A   Clear
8:00 PM 35.6 °F 32.8 °F 19.4 °F 52% 30.15 in - East 3.5 mph - N/A   Clear
9:00 PM 32.0 °F 28.7 °F 21.2 °F 64% 30.15 in - ENE 3.5 mph - N/A   Clear
10:00 PM 32.0 °F 27.5 °F 23.0 °F 69% 30.15 in - East 4.6 mph - N/A   Clear
11:00 PM 32.0 °F 25.6 °F 19.4 °F 60% 30.15 in - East 6.9 mph - N/A   Clear